Conditions Actuelle
Partiellement Nuageux



Pression
30 (inHG) - 1015.92 (mb)
Visibilité

10.0 (km) - 6.2 (miles)
   Température
22  °C
Température
11  °C
Point de Rosée
50  %
 Humidité
   Vitesse du Vent
8  km/h
4  kts
5  mph
2.2  m/s
   Direction du Vent
N
45°
E
90°
135°
S
180°
225°
O
270°
315°
 240°

Ouest Sud
Ouest
   Données D'Aéroport
LFBU
Angoulême-Brie-Champniers Airport
Metar :LFBU 291130Z AUTO 24004KT 170V280 9999 FEW041 SCT220 22/11 Q1016 NOSIG
29-07-2021 13:30
   Informations de métar brut
Le METAR brut est le format le plus courant au monde pour la transmission de données météorologiques d'observation. Il est hautement standardisé par l’Organisation de l’aviation civile internationale (OACI), ce qui lui permet d’être compris dans la plupart des pays du monde.
   API Information
Données fournies par
https://www.checkwx.com/weather/LFBU

Météo aéronautique fournissant des rapports météorologiques METAR, TAF, AIRMET, SIGMET et OUTLOOK
   © Info
CSS/SVG/PHP les scripts ont été développés pa weather34.com pour une utilisation dans le modèle weather34 © 2015-2021

Informations sur le guide fournies par Metar-Wikipedia